Hourly Data Report for October 26, 2014

All times are specified in Local Standard Time (LST). Add 1 hour to adjust for Daylight Saving Time where and when it is observed.

CAPE DORSET A
NUNAVUT

64°13'49.000" N
76°31'30.000" W
48.20 m
2400637
71366
YTE

Download Data

Hourly Data (October 2014)
Hourly Data Report for October 26, 2014
Temp Definition
°C
Dew Point Temp Definition
°C
Rel Hum Definition
%
Wind Dir Definition
10's deg

Wind Spd Definition
km/h
Visibility Definition
km
Stn Press Definition
kPa
Hmdx Definition


Wind Chill Definition


Weather Definition


TIME
00:00 Legend Double Dagger -8.3 -10.4 85 5 26 16.1 100.69   -17 LegendNANA
01:00 Legend Double Dagger -8.5 -10.3 87 5 32 16.1 100.68   -18 LegendNANA
02:00 Legend Double Dagger -8.4 -10.3 86 5 34 16.1 100.69   -18 LegendNANA
03:00 Legend Double Dagger -8.1 -9.9 87 5 35 16.1 100.68   -18 LegendNANA
04:00 Legend Double Dagger -6.9 -8.9 86 6 34 16.1 100.64   -16 LegendNANA
05:00 Legend Double Dagger -6.9 -8.7 87 6 30 16.1 100.64   -15 LegendNANA
06:00 Legend Double Dagger -6.1 -7.6 89 6 32 16.1 100.65   -15 LegendNANA
07:00 Legend Double Dagger -2.7 -5.5 81 10 39 16.1 100.61   -11 LegendNANA
08:00 Legend Double Dagger -2.7 -5.0 84 10 39 16.1 100.60   -11 LegendNANA
09:00 Legend Double Dagger -2.7 -5.4 82 10 41 16.1 100.57   -11 Snow
10:00 Legend Double Dagger -2.2 -4.7 83 10 45 16.1 100.52   -11 LegendNANA
11:00 Legend Double Dagger -2.1 -4.3 85 10 41 16.1 100.54   -10 LegendNANA
12:00 Legend Double Dagger -1.8 -3.9 85 10 46 16.1 100.49   -10 LegendNANA
13:00 Legend Double Dagger -1.6 -3.6 86 10 48 16.1 100.47   -10 LegendNANA
14:00 Legend Double Dagger -1.4 -3.4 86 10 46 16.1 100.45   -10 LegendNANA
15:00 Legend Double Dagger -1.2 -3.3 86 10 43 16.1 100.45   -9 LegendNANA
16:00 Legend Double Dagger -1.1 -3.0 87 11 43 16.1 100.46   -9 LegendNANA
17:00 Legend Double Dagger -1.0 -3.1 86 11 43 16.1 100.43   -9 Snow
18:00 Legend Double Dagger -1.3 -2.3 93 10 46 12.9 100.42   -10 Snow
19:00 Legend Double Dagger -1.0 -3.1 86 11 50 16.1 100.40   -10 LegendNANA
20:00 Legend Double Dagger -1.0 -2.6 89 11 48 4.8 100.39   -9 Snow
21:00 Legend Double Dagger -1.2 LegendMM LegendMM 10 45 1.6 100.39   -9 Snow
22:00 Legend Double Dagger -1.3 LegendMM LegendMM 11 54 1.6 100.32   -10 Snow
23:00 Legend Double Dagger -1.2 LegendMM LegendMM 11 48 1.6 100.27   -10 Snow

Notes on Data Quality.

Legend

  • E = Estimated
  • M = Missing
  • NA = Not Available
  • ‡ = Partner data that is not subject to review by the National Climate Archives
Date modified: